Tracking 29528 objects as of 12-Sep-2024
HD Live streaming from Space Station
objects crossing your sky now

THOR ABLESTAR DEB

Track THOR ABLESTAR DEB now!
10-day predictions


NORAD ID: 406
Int'l Code: 1961-015EF
Perigee: 927.9 km
Apogee: 1,096.0 km
Inclination: 66.8 °
Period: 105.2 minutes
Semi major axis: 7382 km
RCS: 0.0536 m2 (small)
Launch date: June 29, 1961
Source: United States (US)
Launch site: AIR FORCE EASTERN TEST RANGE (AFETR)

Note: This is SATELLITE DEBRIS
Your satellite tracking list
Your tracking list is empty




NASA's NSSDC Master Catalog

Two Line Element Set (TLE):
1 00406U 61015EF  24255.91540296  .00002204  00000-0  25343-2 0  9994
2 00406  66.7782  69.2391 0113889 109.4788   9.8761 13.68539796133134
Source of the keplerian elements: AFSPC